TimeAST,TemperatureF,Dew PointF,Humidity,Sea Level PressureIn,VisibilityMPH,Wind Direction,Wind SpeedMPH,Gust SpeedMPH,PrecipitationIn,Events,Conditions,WindDirDegrees,DateUTC
12:55 AM,82.0,62.2,51,29.77,6.2,WNW,6.9,-,N/A,,Clear,300,2013-05-07 21:55:00
1:23 AM,80.6,62.6,54,29.80,6.2,West,12.7,-,N/A,,Light Drizzle,280,2013-05-07 22:23:00
1:40 AM,80.6,62.6,54,29.79,6.2,NW,15.0,-,N/A,,Clear,310,2013-05-07 22:40:00
1:55 AM,80.4,62.2,54,29.79,6.2,WNW,11.5,-,0.00,,Clear,300,2013-05-07 22:55:00
2:55 AM,79.5,64.8,60,29.77,6.2,WNW,3.5,-,N/A,,Clear,290,2013-05-07 23:55:00
3:55 AM,79.7,63.7,58,29.80,6.2,SW,11.5,-,N/A,,Clear,230,2013-05-08 00:55:00
4:00 AM,78.8,66.2,65,29.80,6.2,SW,18.4,-,N/A,Rain,Light Rain,230,2013-05-08 01:00:00
4:15 AM,77.0,66.2,69,29.78,6.2,SW,8.1,-,N/A,,Partly Cloudy,230,2013-05-08 01:15:00
4:55 AM,76.8,69.3,77,29.80,-9999.0,North,-9999.0,-,0.05,,Clear,0,2013-05-08 01:55:00
5:24 AM,77.0,69.8,78,29.79,6.2,Calm,Calm,-,N/A,,Overcast,0,2013-05-08 02:24:00
5:55 AM,77.7,69.6,76,29.81,6.2,West,1.2,-,N/A,,Mostly Cloudy,260,2013-05-08 02:55:00
6:55 AM,78.8,69.4,73,29.82,6.2,WNW,2.3,-,N/A,,Scattered Clouds,300,2013-05-08 03:55:00
7:55 AM,80.2,66.9,64,29.83,6.2,Calm,Calm,-,N/A,,Scattered Clouds,0,2013-05-08 04:55:00
8:55 AM,82.6,67.8,61,29.83,5.0,South,6.9,-,N/A,,Haze,190,2013-05-08 05:55:00
9:55 AM,85.5,60.8,43,29.84,6.2,West,9.2,-,N/A,,Overcast,270,2013-05-08 06:55:00
10:55 AM,88.3,57.6,35,29.83,6.2,West,6.9,-,N/A,,Overcast,280,2013-05-08 07:55:00
11:55 AM,90.7,57.4,32,29.81,6.2,WSW,11.5,-,N/A,,Overcast,250,2013-05-08 08:55:00
12:55 PM,92.5,55.8,29,29.78,6.2,West,10.4,-,N/A,,Overcast,260,2013-05-08 09:55:00
1:55 PM,93.9,55.2,27,29.76,6.2,West,16.1,-,N/A,,Overcast,260,2013-05-08 10:55:00
2:55 PM,93.6,57.7,30,29.75,6.2,WSW,12.7,-,N/A,,Mostly Cloudy,250,2013-05-08 11:55:00
3:55 PM,93.4,58.1,31,29.73,6.2,WSW,8.1,-,N/A,,Clear,240,2013-05-08 12:55:00
4:55 PM,92.7,58.5,32,29.73,6.2,NNW,4.6,-,N/A,,Clear,330,2013-05-08 13:55:00
5:55 PM,89.2,65.3,45,29.74,5.6,ESE,10.4,-,N/A,,Haze,110,2013-05-08 14:55:00
6:05 PM,87.8,64.4,46,29.74,5.0,ESE,10.4,-,N/A,,Light Drizzle,110,2013-05-08 15:05:00
6:14 PM,87.8,64.4,46,29.74,5.0,SE,8.1,-,N/A,,Haze,130,2013-05-08 15:14:00
6:23 PM,87.8,64.4,46,29.74,1.0,SE,10.4,-,N/A,,Haze,130,2013-05-08 15:23:00
6:55 PM,87.4,62.1,42,29.75,2.5,ESE,8.1,-,0.00,,Clear,110,2013-05-08 15:55:00
7:50 PM,86.0,64.4,48,29.76,2.5,East,4.6,-,N/A,,Clear,100,2013-05-08 16:50:00
7:55 PM,86.5,64.4,47,29.77,2.5,East,4.6,-,N/A,,Clear,90,2013-05-08 16:55:00
8:55 PM,85.3,63.5,48,29.79,5.6,NE,6.9,-,N/A,,Haze,50,2013-05-08 17:55:00
9:55 PM,84.7,65.8,53,29.80,5.6,ENE,5.8,-,N/A,,Haze,60,2013-05-08 18:55:00
10:55 PM,83.1,68.7,62,29.79,5.6,ENE,3.5,-,N/A,,Haze,60,2013-05-08 19:55:00
11:55 PM,82.6,68.2,62,29.79,6.2,NE,3.5,-,N/A,,Clear,40,2013-05-08 20:55:00